�������l�o���
Date,Time,MP-1(��Sv/h),MP-2(��Sv/h),MP-3(��Sv/h),MP-4(��Sv/h),MP-5(��Sv/h),MP-6(��Sv/h),MP-7(��Sv/h),MP-8(��Sv/h),����,����(m/s),���J
2017/12/04,00:00,0.896,1.468,0.936,1.754,1.196,0.496,0.883,0.845,���쐼,5.7,��
2017/12/04,00:10,0.895,1.466,0.935,1.754,1.197,0.496,0.883,0.846,�쐼,6.3,��
2017/12/04,00:20,0.896,1.465,0.934,1.755,1.195,0.496,0.883,0.845,���쐼,6.7,��
2017/12/04,00:30,0.894,1.469,0.935,1.755,1.195,0.497,0.881,0.844,���쐼,6.5,��
2017/12/04,00:40,0.894,1.468,0.936,1.756,1.195,0.495,0.881,0.844,��,6.3,��
2017/12/04,00:50,0.897,1.468,0.935,1.756,1.195,0.495,0.883,0.845,��,5.1,��
2017/12/04,01:00,0.896,1.466,0.938,1.755,1.196,0.495,0.881,0.845,�k��,5.3,��
2017/12/04,01:10,0.896,1.467,0.937,1.753,1.195,0.495,0.882,0.846,�k��,8.9,��
2017/12/04,01:20,0.897,1.468,0.937,1.756,1.196,0.497,0.882,0.845,�k��,12.4,��
2017/12/04,01:30,0.898,1.468,0.935,1.755,1.194,0.498,0.884,0.848,�k��,12.1,��
2017/12/04,01:40,0.897,1.468,0.937,1.755,1.196,0.498,0.884,0.845,�k��,10.4,��
2017/12/04,01:50,0.897,1.467,0.937,1.757,1.197,0.497,0.884,0.846,�k��,12.4,��
2017/12/04,02:00,0.898,1.466,0.936,1.758,1.198,0.496,0.885,0.845,�k��,12.8,��
2017/12/04,02:10,0.896,1.467,0.937,1.757,1.198,0.495,0.882,0.846,�k��,9.8,��
2017/12/04,02:20,0.899,1.468,0.935,1.758,1.196,0.496,0.884,0.847,�k��,9.9,��
2017/12/04,02:30,0.898,1.468,0.939,1.760,1.195,0.496,0.884,0.848,�k��,10.6,��
2017/12/04,02:40,0.898,1.471,0.937,1.759,1.195,0.496,0.884,0.846,�k��,10.2,��
2017/12/04,02:50,0.897,1.466,0.936,1.760,1.196,0.496,0.884,0.847,�k��,8.0,��
2017/12/04,03:00,0.898,1.466,0.937,1.757,1.197,0.496,0.884,0.846,���k��,6.1,��
2017/12/04,03:10,0.897,1.467,0.935,1.756,1.195,0.496,0.885,0.847,���k��,4.8,��
2017/12/04,03:20,0.898,1.468,0.938,1.760,1.195,0.498,0.884,0.847,���k��,4.2,��
2017/12/04,03:30,0.898,1.469,0.939,1.756,1.194,0.497,0.884,0.846,��,3.7,��
2017/12/04,03:40,0.898,1.465,0.937,1.754,1.194,0.497,0.884,0.846,��,3.0,��
2017/12/04,03:50,0.897,1.466,0.936,1.757,1.195,0.496,0.884,0.849,���쐼,2.8,��
2017/12/04,04:00,0.896,1.466,0.937,1.757,1.196,0.498,0.883,0.846,��,3.0,��
2017/12/04,04:10,0.896,1.468,0.937,1.756,1.193,0.496,0.883,0.846,��,3.5,��
2017/12/04,04:20,0.895,1.468,0.936,1.754,1.194,0.496,0.883,0.845,��,3.7,��
2017/12/04,04:30,0.896,1.469,0.937,1.752,1.195,0.495,0.882,0.846,��,4.7,��
2017/12/04,04:40,0.896,1.468,0.935,1.755,1.195,0.496,0.884,0.844,���쐼,4.1,��
2017/12/04,04:50,0.896,1.466,0.933,1.756,1.196,0.497,0.881,0.844,���쐼,2.9,��
2017/12/04,05:00,0.897,1.465,0.936,1.757,1.194,0.496,0.883,0.845,��,2.3,��
2017/12/04,05:10,0.897,1.468,0.937,1.755,1.192,0.496,0.883,0.845,���쐼,1.9,��
2017/12/04,05:20,0.896,1.467,0.934,1.755,1.196,0.498,0.881,0.846,��,1.5,��
2017/12/04,05:30,0.896,1.467,0.935,1.755,1.195,0.495,0.883,0.845,��쐼,1.7,��
2017/12/04,05:40,0.896,1.463,0.936,1.754,1.194,0.495,0.882,0.846,��쐼,1.7,��
2017/12/04,05:50,0.895,1.467,0.936,1.752,1.194,0.495,0.882,0.846,��쐼,2.9,��
2017/12/04,06:00,0.895,1.466,0.935,1.753,1.195,0.496,0.882,0.846,�쐼,1.9,��
2017/12/04,06:10,0.896,1.465,0.935,1.755,1.194,0.494,0.882,0.845,�쐼,1.7,��
2017/12/04,06:20,0.894,1.464,0.934,1.757,1.194,0.494,0.882,0.845,���쐼,1.2,��
2017/12/04,06:30,0.894,1.466,0.934,1.758,1.196,0.495,0.883,0.847,���k��,0.6,��
2017/12/04,06:40,0.894,1.465,0.936,1.755,1.194,0.496,0.884,0.845,�k��,0.6,��
2017/12/04,06:50,0.895,1.467,0.936,1.756,1.194,0.494,0.883,0.845,�k�k��,1.1,��
2017/12/04,07:00,0.895,1.468,0.935,1.753,1.195,0.495,0.882,0.846,�k�k��,1.5,��
2017/12/04,07:10,0.896,1.465,0.935,1.756,1.194,0.494,0.881,0.845,�k�k��,1.5,��
2017/12/04,07:20,0.894,1.466,0.936,1.751,1.196,0.496,0.879,0.844,�k,1.5,��
2017/12/04,07:30,0.896,1.465,0.935,1.754,1.194,0.495,0.882,0.846,�k�k��,1.5,��
2017/12/04,07:40,0.897,1.470,0.937,1.755,1.192,0.494,0.881,0.845,�k�k��,0.9,��
2017/12/04,07:50,0.896,1.465,0.935,1.754,1.193,0.494,0.881,0.846,�k��,1.2,��
2017/12/04,08:00,0.898,1.468,0.936,1.754,1.195,0.497,0.880,0.844,�k��,2.0,��
2017/12/04,08:10,0.895,1.467,0.934,1.756,1.193,0.495,0.883,0.847,�k�k��,1.9,��
2017/12/04,08:20,0.897,1.469,0.938,1.756,1.195,0.494,0.884,0.846,�k�k��,3.4,��
2017/12/04,08:30,0.895,1.467,0.935,1.755,1.196,0.496,0.884,0.846,�k�k��,3.8,��
2017/12/04,08:40,0.897,1.469,0.936,1.755,1.195,0.496,0.885,0.846,�k�k��,2.8,��
2017/12/04,08:50,0.899,1.468,0.936,1.757,1.195,0.495,0.886,0.847,�k�k��,2.9,��
2017/12/04,09:00,0.900,1.470,0.938,1.756,1.199,0.497,0.884,0.845,�k�k��,2.3,��
2017/12/04,09:10,0.901,1.466,0.937,1.758,1.196,0.496,0.886,0.846,�k,2.2,��
2017/12/04,09:20,0.899,1.468,0.938,1.756,1.197,0.498,0.885,0.847,�k��,1.5,��
2017/12/04,09:30,0.898,1.464,0.938,1.757,1.196,0.498,0.884,0.847,�k��,2.3,��
2017/12/04,09:40,0.899,1.467,0.939,1.759,1.197,0.497,0.883,0.847,�k�k��,2.9,��
2017/12/04,09:50,0.898,1.462,0.938,1.759,1.197,0.497,0.882,0.847,�k��,3.0,��
2017/12/04,10:00,0.900,1.459,0.937,1.759,1.200,0.498,0.882,0.848,�k��,3.8,��
2017/12/04,10:10,0.901,1.460,0.938,1.758,1.198,0.497,0.882,0.846,�k��,3.5,��
2017/12/04,10:20,0.902,1.462,0.939,1.760,1.197,0.497,0.883,0.847,���k��,3.4,��
2017/12/04,10:30,0.900,1.463,0.940,1.760,1.200,0.499,0.882,0.847,���k��,3.3,��
2017/12/04,10:40,0.902,1.464,0.936,1.759,1.196,0.495,0.885,0.848,�k��,3.6,��
2017/12/04,10:50,0.900,1.461,0.941,1.761,1.199,0.496,0.883,0.848,�k��,3.4,��
2017/12/04,11:00,0.899,1.462,0.941,1.758,1.200,0.496,0.884,0.848,�k�k��,3.6,��
2017/12/04,11:10,0.895,1.463,0.940,1.763,1.199,0.496,0.883,0.847,�k��,3.8,��
2017/12/04,11:20,0.896,1.464,0.937,1.759,1.199,0.496,0.884,0.848,�k�k��,3.7,��
2017/12/04,11:30,0.902,1.465,0.940,1.763,1.198,0.497,0.883,0.849,�k��,3.4,��
2017/12/04,11:40,0.899,1.467,0.939,1.758,1.199,0.498,0.882,0.848,�k�k��,3.0,��
2017/12/04,11:50,0.901,1.464,0.938,1.761,1.199,0.498,0.884,0.849,�k�k��,2.6,��
2017/12/04,12:00,0.901,1.467,0.941,1.760,1.201,0.496,0.884,0.848,�k�k��,5.5,��
2017/12/04,12:10,0.901,1.467,0.939,1.759,1.199,0.498,0.884,0.847,�k�k��,5.2,��
2017/12/04,12:20,0.901,1.469,0.939,1.762,1.198,0.498,0.881,0.848,�k�k��,5.2,��
2017/12/04,12:30,0.899,1.467,0.940,1.759,1.199,0.499,0.884,0.849,�k�k��,4.8,��
2017/12/04,12:40,0.901,1.466,0.939,1.758,1.200,0.498,0.884,0.847,�k�k��,4.2,��
2017/12/04,12:50,0.900,1.467,0.939,1.760,1.200,0.497,0.883,0.848,�k�k��,3.7,��
2017/12/04,13:00,0.902,1.467,0.941,1.762,1.197,0.497,0.885,0.849,�k,4.4,��
2017/12/04,13:10,0.902,1.464,0.940,1.759,1.198,0.497,0.883,0.847,�k�k��,3.9,��
2017/12/04,13:20,0.900,1.467,0.941,1.758,1.199,0.496,0.882,0.847,�k,3.5,��
2017/12/04,13:30,0.903,1.463,0.939,1.760,1.199,0.498,0.885,0.846,�k,3.1,��
2017/12/04,13:40,0.902,1.467,0.939,1.760,1.200,0.496,0.879,0.848,�k,3.2,��
2017/12/04,13:50,0.900,1.468,0.941,1.760,1.200,0.498,0.882,0.848,�k,2.6,��
2017/12/04,14:00,0.902,1.468,0.939,1.759,1.201,0.497,0.883,0.849,�k,3.5,��
2017/12/04,14:10,0.902,1.468,0.938,1.762,1.201,0.497,0.884,0.848,�k�k��,2.6,�L
2017/12/04,14:20,0.900,1.468,0.939,1.759,1.199,0.498,0.882,0.846,�k�k��,1.9,�L
2017/12/04,14:30,0.901,1.466,0.938,1.761,1.197,0.499,0.884,0.848,�k��,1.9,�L
2017/12/04,14:40,0.901,1.469,0.939,1.760,1.200,0.498,0.881,0.847,�k�k��,2.0,�L
2017/12/04,14:50,0.900,1.468,0.939,1.760,1.196,0.497,0.884,0.848,�k�k��,1.9,�L
2017/12/04,15:00,0.899,1.470,0.939,1.758,1.196,0.498,0.882,0.848,�k�k��,2.0,�L
2017/12/04,15:10,0.899,1.469,0.940,1.759,1.195,0.498,0.881,0.847,�k��,1.2,�L
2017/12/04,15:20,0.899,1.467,0.940,1.758,1.198,0.498,0.883,0.847,�k��,1.4,�L
2017/12/04,15:30,0.900,1.466,0.940,1.760,1.199,0.497,0.883,0.848,���k��,1.9,�L
2017/12/04,15:40,0.900,1.467,0.938,1.756,1.198,0.499,0.882,0.846,���k��,2.0,�L
2017/12/04,15:50,0.900,1.466,0.938,1.758,1.194,0.499,0.885,0.849,��,1.5,�L
2017/12/04,16:00,0.898,1.467,0.937,1.755,1.194,0.499,0.885,0.847,�k�k��,2.5,�L
2017/12/04,16:10,0.897,1.464,0.938,1.752,1.194,0.497,0.883,0.848,�k��,2.9,�L
2017/12/04,16:20,0.897,1.466,0.938,1.757,1.193,0.499,0.882,0.847,���k��,3.1,�L
2017/12/04,16:30,0.896,1.460,0.938,1.755,1.191,0.498,0.885,0.847,�k��,3.9,�L
2017/12/04,16:40,0.895,1.465,0.936,1.754,1.191,0.498,0.883,0.846,�k��,4.3,�L
2017/12/04,16:50,0.894,1.461,0.937,1.753,1.192,0.497,0.883,0.845,�k��,4.4,�L
2017/12/04,17:00,0.894,1.462,0.937,1.755,1.190,0.497,0.884,0.847,�k��,7.7,�L
2017/12/04,17:10,0.893,1.461,0.937,1.754,1.190,0.498,0.885,0.846,�k��,6.9,�L
2017/12/04,17:20,0.893,1.462,0.937,1.752,1.190,0.499,0.881,0.848,�k��,6.6,�L
2017/12/04,17:30,0.892,1.456,0.933,1.751,1.185,0.499,0.882,0.846,�k�k��,7.4,�L
2017/12/04,17:40,0.893,1.451,0.934,1.748,1.183,0.498,0.881,0.844,�k��,7.7,�L
2017/12/04,17:50,0.892,1.449,0.934,1.743,1.180,0.499,0.880,0.843,���k��,7.2,�L
2017/12/04,18:00,0.889,1.443,0.930,1.736,1.174,0.500,0.875,0.842,���k��,6.6,�L
2017/12/04,18:10,0.887,1.437,0.929,1.733,1.172,0.500,0.879,0.843,�k��,5.2,�L
2017/12/04,18:20,0.885,1.432,0.924,1.726,1.165,0.497,0.874,0.844,�k��,3.8,�L
2017/12/04,18:30,0.881,1.429,0.923,1.722,1.167,0.499,0.873,0.841,�k��,3.3,�L
2017/12/04,18:40,0.884,1.428,0.922,1.718,1.166,0.499,0.875,0.840,�k��,3.0,�L
2017/12/04,18:50,0.882,1.426,0.921,1.713,1.162,0.498,0.873,0.840,���k��,2.9,�L
2017/12/04,19:00,0.881,1.423,0.920,1.711,1.158,0.498,0.871,0.838,���k��,2.3,�L
2017/12/04,19:10,0.878,1.419,0.919,1.708,1.157,0.499,0.871,0.838,���k��,2.3,�L
2017/12/04,19:20,0.876,1.419,0.920,1.703,1.159,0.498,0.871,0.839,���k��,2.5,�L
2017/12/04,19:30,0.876,1.416,0.919,1.703,1.157,0.496,0.871,0.837,���k��,2.0,�L
2017/12/04,19:40,0.876,1.416,0.919,1.699,1.154,0.497,0.870,0.838,���k��,1.4,�L
2017/12/04,19:50,0.876,1.415,0.918,1.699,1.157,0.495,0.870,0.838,�k��,1.4,�L
2017/12/04,20:00,0.875,1.415,0.916,1.699,1.153,0.494,0.870,0.837,�k��,3.4,�L
2017/12/04,20:10,0.874,1.415,0.913,1.698,1.154,0.494,0.869,0.836,�k��,3.9,�L
2017/12/04,20:20,0.871,1.412,0.914,1.693,1.153,0.494,0.867,0.835,�k�k��,3.4,�L
2017/12/04,20:30,0.872,1.410,0.914,1.695,1.149,0.496,0.868,0.835,�k�k��,2.0,�L
2017/12/04,20:40,0.872,1.408,0.913,1.694,1.149,0.493,0.869,0.835,�k�k��,0.8,�L
2017/12/04,20:50,0.872,1.407,0.912,1.691,1.149,0.493,0.867,0.836,-,CALM,�L
2017/12/04,21:00,0.870,1.407,0.910,1.687,1.148,0.494,0.866,0.833,-,CALM,�L
2017/12/04,21:10,0.870,1.403,0.910,1.686,1.145,0.493,0.866,0.833,��,1.2,�L
2017/12/04,21:20,0.867,1.399,0.908,1.681,1.142,0.491,0.864,0.831,���쓌,1.2,�L
2017/12/04,21:30,0.867,1.398,0.909,1.680,1.143,0.491,0.863,0.832,���쓌,0.9,�L
2017/12/04,21:40,0.866,1.398,0.906,1.683,1.139,0.491,0.864,0.832,��,0.9,�L
2017/12/04,21:50,0.867,1.399,0.908,1.679,1.141,0.490,0.864,0.833,�k��,0.6,�L
2017/12/04,22:00,0.868,1.398,0.906,1.679,1.138,0.490,0.864,0.833,�k��,1.2,�L
2017/12/04,22:10,0.867,1.399,0.907,1.681,1.141,0.490,0.866,0.833,�k�k��,0.9,�L
2017/12/04,22:20,0.869,1.402,0.905,1.682,1.143,0.491,0.866,0.832,�k��,1.5,�L
2017/12/04,22:30,0.870,1.401,0.905,1.682,1.142,0.490,0.865,0.832,�k�k��,0.9,�L
2017/12/04,22:40,0.869,1.402,0.906,1.683,1.143,0.491,0.864,0.832,�k�k��,0.9,�L
2017/12/04,22:50,0.870,1.403,0.906,1.682,1.145,0.489,0.866,0.833,�k�k��,1.1,�L
2017/12/04,23:00,0.867,1.407,0.907,1.684,1.145,0.489,0.864,0.832,���k��,1.4,�L
2017/12/04,23:10,0.870,1.408,0.904,1.686,1.143,0.489,0.865,0.832,���k��,1.5,�L
2017/12/04,23:20,0.869,1.406,0.905,1.684,1.142,0.490,0.865,0.832,��,1.4,�L
2017/12/04,23:30,0.869,1.405,0.906,1.684,1.144,0.488,0.865,0.832,��,1.4,�L
2017/12/04,23:40,0.871,1.407,0.906,1.684,1.142,0.489,0.866,0.833,-,CALM,��
2017/12/04,23:50,0.869,1.407,0.905,1.687,1.145,0.489,0.869,0.832,���쓌,0.6,��
